Simultaneous Nadir Overpasses (SNOs) Predictions

Prediction of SNOs between LANDSAT-8 and METOP-B Satellite Orbit:

Table of predicted SNOs for the next 14.0 days since TLE Epoch: 9/3/2022
Index Date (LANDSAT-8) Time (LANDSAT-8) Lat,Lon (LANDSAT-8) SZA (LANDSAT-8 ) Date (METOP-B) Time (METOP-B) Lat,Lon (METOP-B) SZA (METOP-B ) Distance(km) Time Diff (sec)
1 09/05/2022 00:44:02 81.17,-150.21 76.47 09/05/2022 00:43:39 81.17,-150.34 76.45 2.21 23
2 09/05/2022 01:33:28 -81.19, 17.73 103.48 09/05/2022 01:34:18 -81.19, 17.60 103.47 2.26 50
3 09/07/2022 20:18:18 81.17, -83.76 77.54 09/07/2022 20:17:58 81.17, -83.83 77.53 1.16 20
4 09/07/2022 21:07:44 -81.19, 84.21 102.40 09/07/2022 21:08:37 -81.19, 84.13 102.38 1.28 53
5 09/10/2022 15:52:34 81.19, -17.02 78.67 09/10/2022 15:52:17 81.19, -16.97 78.67 0.93 17
6 09/10/2022 16:42:01 -81.19, 150.61 101.32 09/10/2022 16:42:57 -81.19, 150.64 101.29 0.81 56
7 09/13/2022 11:26:51 81.18, 49.28 79.75 09/13/2022 11:26:38 81.18, 49.10 79.72 3.14 13
8 09/13/2022 12:16:17 -81.20,-142.69 100.19 09/13/2022 12:17:16 -81.21,-142.50 100.14 3.24 59
9 09/16/2022 07:01:06 81.19, 115.88 80.87 09/16/2022 07:00:56 81.19, 115.90 80.87 0.54 10



Historial Predications of SNOs between LANDSAT-8 and METOP-B
